Hourly Data Report for October 08, 2015

All times are specified in Local Standard Time (LST). Add 1 hour to adjust for Daylight Saving Time where and when it is observed.

HALL BEACH A
NUNAVUT

68°46'33.000" N
81°14'33.000" W
9.10 m
2402354
71293
YUX

Download Data

Hourly Data (October 2015)
Hourly Data Report for October 8, 2015
Temp Definition
°C
Dew Point Temp Definition
°C
Rel Hum Definition
%
Wind Dir Definition
10's deg

Wind Spd Definition
km/h
Visibility Definition
km
Stn Press Definition
kPa
Hmdx Definition


Wind Chill Definition


Weather Definition


TIME
00:00 Legend Double Dagger -8.0 -8.9 93 25 15 16.1 100.39   -14 LegendNANA
01:00 Legend Double Dagger -8.2 -9.4 91 25 11 16.1 100.38   -13 LegendNANA
02:00 Legend Double Dagger -7.3 -8.7 90 27 13 16.1 100.38   -13 LegendNANA
03:00 Legend Double Dagger -8.2 -9.3 92 27 18 16.1 100.36   -15 LegendNANA
04:00 Legend Double Dagger -8.3 -9.3 93 27 15 16.1 100.36   -15 LegendNANA
05:00 Legend Double Dagger -8.3 -9.1 94 25 13 16.1 100.37   -14 LegendNANA
06:00 Legend Double Dagger -8.5 -9.4 93 26 11 16.1 100.38   -14 LegendNANA
07:00 Legend Double Dagger -8.2 -9.1 93 27 11 16.1 100.39   -13 LegendNANA
08:00 Legend Double Dagger -7.8 -8.7 93 28 13 16.1 100.39   -14 LegendNANA
09:00 Legend Double Dagger -6.8 -8.0 91 28 11 16.1 100.38   -12 LegendNANA
10:00 Legend Double Dagger -5.3 -7.0 88 27 13 16.1 100.38   -10 LegendNANA
11:00 Legend Double Dagger -4.2 -6.5 84 27 15 16.1 100.38   -10 LegendNANA
12:00 Legend Double Dagger -3.9 -6.4 83 27 15 12.9 100.37   -9 LegendNANA
13:00 Legend Double Dagger -3.8 -6.0 85 28 15 16.1 100.38   -9 LegendNANA
14:00 Legend Double Dagger -4.0 -6.2 85 29 13 16.1 100.40   -9 LegendNANA
15:00 Legend Double Dagger -4.1 -6.6 83 29 15 16.1 100.41   -9 LegendNANA
16:00 Legend Double Dagger -5.0 -7.0 86 28 9 16.1 100.43   -9 LegendNANA
17:00 Legend Double Dagger -6.7 -8.1 90 27 11 16.1 100.43   -12 LegendNANA
18:00 Legend Double Dagger -7.2 -8.3 92 28 15 16.1 100.44   -13 LegendNANA
19:00 Legend Double Dagger -7.8 -8.9 92 26 9 16.1 100.45   -12 LegendNANA
20:00 Legend Double Dagger -7.6 -8.5 94 26 8 16.1 100.44   -12 LegendNANA
21:00 Legend Double Dagger -7.4 -8.3 93 30 9 16.1 100.41   -12 LegendNANA
22:00 Legend Double Dagger -7.5 -8.2 95 28 9 16.1 100.40   -12 LegendNANA
23:00 Legend Double Dagger -7.8 -8.6 94 25 8 16.1 100.40   -12 LegendNANA

Notes on Data Quality.

Legend

  • E = Estimated
  • M = Missing
  • NA = Not Available
  • ‡ = Partner data that is not subject to review by the National Climate Archives
Date modified: